Location: Unspecified
(0.0000°N, 0.0000°E)
Time: 16:17:15
(UTC+00:00)

Transit 4A - Pass Details

Date: 27 November 2019
Orbit: 870 x 975 km, 66.8° (Epoch: 13 December)

Event Time Altitude Azimuth Distance (km) Brightness Sun altitude
Rises 06:43:09 0° 334° (NNW) 3,440 10.4 13.0°
Reaches altitude 10° 06:45:38 10° 331° (NNW) 2,505 9.8 13.5°
Maximum altitude 06:51:19 62° 251° (WSW) 975 8.1 14.9°
Drops below altitude 10° 06:57:07 10° 170° (S) 2,546 10.7 16.2°
Sets 06:59:40 0° 167° (SSE) 3,500 11.4 16.8°
